Location: Catstown
(52.4386°N, 7.2633°W)
Time: 10:43:19
(UTC+00:00)

Daily predictions for brighter satellites

Satellite Brightness Start Highest point End
(mag) Time Altitude Azimuth Time Altitude Azimuth Time Altitude Azimuth
Cosmos 2297 Rocket 3.8 19:03:11 10° WSW 19:08:26 37° NW 19:13:42 10° NNE
Cosmos 1975 Rocket 3.1 19:06:01 10° N 19:10:21 62° ENE 19:14:38 10° SSE
Cosmos 1689 Rocket 4.0 19:08:38 10° N 19:11:25 35° WNW 19:14:11 10° SW
Cosmos 2082 4.4 19:06:38 10° SW 19:12:10 59° NW 19:17:47 10° NNE
COSMO-SKYMED 1 3.2 19:09:05 10° N 19:13:25 63° WNW 19:17:43 10° SSW
Cosmos 2084 Rocket 4.3 19:09:14 10° NW 19:13:33 54° SW 19:17:57 10° SSE
NOSS 2-2 (E) 4.4 19:14:12 10° S 19:16:58 21° ESE 19:19:59 10° ENE
Cosmos 1707 3.1 19:16:10 10° N 19:19:51 42° ENE 19:23:30 10° SE
Lacrosse 4 Rocket 3.9 19:21:13 10° N 19:21:52 10° NNE 19:22:30 10° NNE
Resurs 01 Rocket 3.3 19:19:31 10° E 19:22:20 17° NE 19:25:10 10° NNE
H-2A R/B 2.0 19:17:24 10° SSE 19:22:22 82° ENE 19:27:30 10° NNW
CZ-2C R/B 3.6 19:18:41 10° NE 19:23:22 27° E 19:28:05 10° SSE
Cosmos 1743 3.8 19:19:50 10° SSW 19:23:34 50° WNW 19:27:19 10° N
ARGOS 3.2 19:18:19 10° SSE 19:23:37 68° ENE 19:28:58 10° N
DMSP B5D1-3 4.5 19:18:58 10° NNE 19:24:03 66° ESE 19:29:07 10° S
NOSS 2-2 (D) 4.4 19:22:45 10° SSE 19:25:25 20° ESE 19:28:19 10° ENE
SJ-6B 3.5 19:22:32 10° SE 19:25:53 32° ENE 19:29:16 10° N
Sich 1 Rocket 3.9 19:23:49 10° SSE 19:28:06 45° E 19:32:26 10° NNE
Iridium 4 Rocket 3.7 19:24:01 10° S 19:28:59 82° W 19:34:29 10° N
CENTAUR R/B 3.4 19:23:07 10° NW 19:30:37 57° NNE 19:38:33 12° ESE
ATLAS CENTAUR R/B 3.1 19:27:33 10° W 19:30:56 28° NNW 19:34:13 10° NNE
USA 102 4.3 19:25:14 10° SSE 19:31:40 62° SW 19:34:17 10° NW
ATLAS 3B R/B 3.7 19:30:22 10° NW 19:36:31 36° NNE 19:42:49 10° E
USA 238 DEB 3.9 19:31:42 10° NW 19:38:49 71° NE 19:45:38 13° ESE
USA 238 3.9 19:31:48 10° NW 19:38:55 71° NE 19:45:43 13° ESE
Cosmos 2263 Rocket 2.1 19:33:38 10° SSW 19:39:11 76° ESE 19:44:49 10° NNE
ARIANE 5 R/B 4.5 19:37:43 12° E 19:39:40 15° NE 19:42:08 10° NNE
SL-08 RB Rocket 3.7 19:35:24 10° SSE 19:39:57 66° ENE 19:44:29 10° N
ISS -1.9 19:38:44 10° S 19:40:43 15° SE 19:41:15 14° SE
Abrixas rocket 2.9 19:38:28 10° SW 19:41:01 30° S 19:42:31 19° ESE
Meteor 2-9 Rocket 4.3 19:36:20 10° S 19:42:13 90° WNW 19:48:01 10° NNE
SJ 16-02 2.5 19:38:48 10° SW 19:43:02 48° WNW 19:47:18 10° NNE
CZ-2C R/B 4.0 19:40:47 10° S 19:45:56 55° W 19:51:25 10° NNW
Cosmos 990 Rocket 4.2 19:41:18 10° SSW 19:46:27 77° WNW 19:51:38 10° NNE
Cosmos 1844 Rocket 3.7 19:42:33 10° SSE 19:46:51 23° ESE 19:51:10 10° NE
Okean 2 Rocket 3.4 19:43:55 10° SSE 19:48:13 46° E 19:52:31 10° NNE
Cosmos 2227 4.3 19:43:18 10° SSW 19:49:03 89° WNW 19:54:49 10° NNE
Cosmos 1437 4.4 19:46:21 10° NNW 19:49:07 33° W 19:51:51 10° SSW
Lacrosse 5 rocket 1.9 19:46:16 10° W 19:50:32 63° NNW 19:55:01 10° ENE
Cosmos 1943 4.3 19:45:59 10° NW 19:51:20 45° WSW 19:56:41 10° S
Cosmos 1464 Rocket 4.0 19:45:57 10° S 19:51:57 60° E 19:58:02 10° NNE
Okean 1 Rocket 4.4 19:51:22 18° ESE 19:52:50 21° E 19:56:10 10° NE
IRS-1A Rocket 4.4 19:49:09 10° SSE 19:55:03 79° ENE 20:00:55 10° NNW
Cosmos 1092 Rocket 4.4 19:49:39 10° N 19:55:28 41° ENE 20:00:15 15° SE
Ariane Rocket 2.9 19:51:36 10° SSE 19:56:40 80° ENE 20:01:47 10° NNW
USA 116 4.5 19:54:47 10° N 19:58:00 48° WNW 20:01:31 10° SW
Meteor 1-12 Rocket 4.3 19:53:40 10° S 19:59:29 63° E 20:05:13 10° NNE
Resurs 1-3 4.0 19:57:57 18° SE 20:00:57 44° ENE 20:05:08 10° N
Cosmos 1300 Rocket 3.6 19:56:51 10° S 20:01:11 59° E 20:05:33 10° NNE
Cosmos 494 Rocket 4.3 19:57:03 10° NNW 20:02:11 50° ENE 20:05:36 20° SE
Cosmos 1833 Rocket 4.0 19:59:55 10° NNW 20:04:38 26° NE 20:07:47 16° E
Cosmos 2298 Rocket 4.4 20:00:29 10° S 20:05:28 42° ESE 20:10:28 10° NE
NOSS 3-2 (A) 4.0 19:59:48 10° NW 20:07:07 88° SW 20:13:57 17° SE
SPOT 3 Rocket 3.8 20:03:38 17° SE 20:07:21 51° ENE 20:12:21 10° N
MetOp-A 4.1 20:04:18 10° SSE 20:09:38 80° ENE 20:15:02 10° NNW
NOSS 2-2 (C) 3.3 20:06:17 10° SSW 20:09:41 49° SE 20:13:35 10° NE
Cosmos 1898 Rocket 4.3 20:08:49 10° SW 20:13:53 54° WNW 20:19:00 10° NNE
Cosmos 1867 4.4 20:08:54 10° NW 20:14:08 47° WSW 20:19:18 10° SSE
Cosmos 1536 Rocket 3.5 20:09:58 10° N 20:14:26 83° ENE 20:18:26 13° SSE
Cosmos 1626 3.2 20:14:21 10° N 20:17:36 27° ENE 20:17:51 27° ENE
CREW DRAGON DEMO-1 DEB 2.7 20:16:11 10° W 20:19:13 75° S 20:19:51 50° ESE
Cosmos 1891 Rocket 4.5 20:13:33 10° S 20:19:42 86° WNW 20:25:48 10° N
Terra 3.8 20:19:13 12° ENE 20:20:09 13° NE 20:22:12 10° NNE
USA 186 3.0 20:20:40 10° S 20:23:37 40° W 20:26:43 10° NNW
DMSP B5D2-2 4.0 20:20:42 10° NNE 20:26:00 68° ESE 20:31:16 10° S
USA 234 3.7 20:21:03 10° ENE 20:27:06 38° SE 20:33:08 10° SSW
Meteor 2-5 Rocket 3.8 20:21:53 10° N 20:27:27 58° ENE 20:30:35 26° SE
Cosmos 1025 Rocket 3.7 20:23:50 10° NNW 20:28:07 57° W 20:32:25 10° S
Cosmos 2151 Rocket 3.5 20:24:57 10° S 20:29:24 83° E 20:33:55 10° NNE
Cosmos 372 Rocket 3.9 20:27:18 10° SSW 20:32:34 89° ESE 20:37:50 10° NNE
Cosmos 2150 Rocket 4.0 20:30:12 10° S 20:35:30 65° ESE 20:40:56 10° NNE
OBJECT-B 0.9 20:34:35 39° S 20:35:39 75° WSW 20:38:55 10° NNW
Cosmos 1805 3.4 20:35:56 46° ESE 20:36:11 47° E 20:39:58 10° NNE
FREGAT/IRIS 4.0 20:36:28 21° SW 20:37:38 30° W 20:40:01 10° NNW
SPOT 5 4.3 20:40:09 23° ENE 20:41:06 25° ENE 20:45:20 10° N
NOSS 3-2 (C) 4.0 20:33:56 10° NW 20:41:16 85° SW 20:46:11 28° SE
Nadezhda 4 Rocket 4.2 20:36:29 10° NNW 20:42:33 68° W 20:48:36 10° S
Cosmos 1674 2.8 20:39:02 10° NNW 20:42:54 74° W 20:44:32 33° S
BREEZE-M DEB (TANK) 4.5 20:40:39 10° W 20:43:56 29° SSW 20:47:13 21° SSE
Cosmos 2082 Rocket 3.4 20:39:48 10° NNW 20:44:38 28° NE 20:46:33 23° ENE
Cosmos 1125 Rocket 3.5 20:41:06 10° S 20:46:16 55° ESE 20:51:29 10° NNE
Okean 1-7 Rocket 4.5 20:42:25 10° N 20:46:35 33° ENE 20:46:41 33° ENE
Cosmos 2034 Rocket 4.1 20:42:34 10° SSW 20:48:58 79° W 20:55:21 10° N
Cosmos 1733 3.9 20:52:17 40° NE 20:52:17 40° NE 20:55:06 10° NNE
SL-14 R/B 3.4 20:47:47 10° N 20:51:36 55° ENE 20:51:36 55° ENE
COSMOS 2406 3.5 20:47:04 10° NNW 20:52:39 53° NE 20:54:20 40° ESE
Meteor 1-24 Rocket 3.6 20:48:52 10° N 20:54:20 71° ENE 20:56:22 40° SSE
ERS-1 Rocket 3.8 20:57:24 33° ENE 20:57:50 33° ENE 21:02:20 10° N
Resurs 01 Rocket 1.6 20:56:51 43° S 20:58:16 84° WSW 21:02:46 10° NNW
Lacrosse 4 Rocket 2.8 20:58:35 10° NNW 21:01:58 24° NE 21:02:11 24° NE
CZ-2C R/B 3.3 20:58:36 10° N 21:04:00 59° WNW 21:09:28 10° SSW
Landsat 7 3.8 21:04:40 57° ESE 21:05:17 63° ENE 21:10:01 10° N
Exosat Rocket 3.4 21:01:19 10° SSW 21:06:45 71° ESE 21:11:44 10° NNE
NOSS 2-2 (E) 4.0 21:03:31 10° WSW 21:07:04 52° NW 21:11:24 10° NE
Cosmos 1766 3.2 21:09:00 76° NNE 21:09:00 76° NNE 21:12:41 10° NNE
ATLAS CENTAUR R/B 3.9 21:08:59 10° NW 21:10:56 13° N 21:12:51 10° NNE
Cosmos 1655 Rocket 4.3 21:05:20 10° N 21:11:24 49° ENE 21:12:30 44° ESE
ATLAS 2AS CENTAUR R/B 3.4 21:11:59 39° ESE 21:11:59 39° ESE 21:19:07 10° NE
IGS 5A 3.4 21:13:37 72° NE 21:13:37 72° NE 21:17:35 10° N
SPOT 1/Viking Rocket 3.5 21:14:24 58° ESE 21:15:03 64° ENE 21:20:12 10° N
ARIANE 5 R/B 2.4 21:15:16 80° SSE 21:15:31 88° ENE 21:19:54 10° NNW
NOSS 2-2 (D) 3.9 21:11:59 10° WSW 21:15:32 54° NW 21:19:45 10° NE
ISS -1.1 21:13:42 10° SW 21:14:15 14° SW 21:14:15 14° SW
Cosmos 1844 3.5 21:12:43 10° SSW 21:18:25 81° ESE 21:24:06 10° NNE
Cosmos 2278 Rocket 4.2 21:22:33 13° NE 21:22:33 13° NE 21:23:20 10° NE
Cosmos 1269 Rocket 4.1 21:15:29 10° NNW 21:20:48 76° WSW 21:21:56 55° S
Cosmos 1455 Rocket 4.5 21:23:00 27° NE 21:23:00 27° NE 21:25:16 10° NNE
CENTAUR R/B 3.4 21:13:54 10° NW 21:21:44 63° SW 21:25:44 34° SSE
Cosmos 1634 Rocket 3.9 21:19:01 28° S 21:22:27 88° ESE 21:28:42 10° N
Cosmos 2263 Rocket 4.1 21:18:53 10° W 21:23:42 29° NW 21:28:33 10° NNE
MetOp-B 4.2 21:22:32 49° S 21:23:59 76° WSW 21:29:22 10° NNW
Cosmos 2285 Rocket 3.9 21:21:22 10° SSW 21:27:41 89° WNW 21:34:05 10° NNE
ATLAS 3B R/B 2.7 21:21:22 10° NW 21:28:12 75° NE 21:30:03 52° ESE
Spot 2 Rocket 3.3 21:28:19 74° SSE 21:28:49 90° ENE 21:33:54 10° NNW
Cosmos 1340 Rocket 4.2 21:30:54 30° NNE 21:30:54 30° NNE 21:33:01 10° NNE
Cosmos 1844 Rocket 2.8 21:24:37 10° SW 21:30:11 73° WNW 21:35:50 10° NNE
Lacrosse 5 rocket 2.3 21:25:58 10° WNW 21:30:14 46° N 21:30:50 43° NNE
Okean 1 Rocket 3.7 21:28:30 31° SW 21:30:22 54° WNW 21:34:48 10° N
CZ-2C R/B 4.5 21:37:49 10° N 21:42:07 49° WNW 21:43:44 33° WSW
Cosmos 909 Rocket 4.0 21:39:13 10° NW 21:45:59 69° NE 21:46:53 61° E
Meteor 2-19 Rocket 4.4 21:42:39 10° NNW 21:48:49 83° W 21:49:44 66° S
Cosmos 1833 Rocket 2.5 21:43:37 10° NNW 21:49:19 89° WSW 21:49:28 86° SSE
Cosmos 2180 Rocket 4.3 21:50:40 73° SE 21:51:01 75° E 21:57:22 10° NNE
Cosmos 1626 4.0 21:49:36 10° NNW 21:52:24 28° WNW 21:52:24 28° WNW
Cosmos 2251 Rocket 3.7 21:48:18 10° NNW 21:53:17 65° NNE 21:53:17 65° NNE
Terra 2.5 21:58:06 49° NNE 21:58:06 49° NNE 22:01:45 10° N
Cosmos 2279 Rocket 4.1 22:05:24 56° SW 22:06:43 73° WNW 22:13:02 10° N
USA 234 3.1 22:06:55 29° ENE 22:10:37 88° SSE 22:17:12 10° WSW
SPOT 5 3.4 22:19:24 60° WNW 22:19:24 60° WNW 22:24:00 10° NNW
Cosmos 2082 Rocket 2.5 22:23:41 10° NNW 22:28:23 61° NW 22:28:23 61° NW
Resurs 01 Rocket 4.3 22:34:25 11° W 22:35:30 12° W 22:37:17 10° WNW
ERS-1 Rocket 4.0 22:37:24 40° WNW 22:37:24 40° WNW 22:41:21 10° NNW
COSMOS 2406 4.4 22:31:42 10° NW 22:36:24 34° W 22:36:24 34° W
NOSS 3-4 (A) 4.2 22:41:29 44° NE 22:41:29 44° NE 22:45:52 10° NE
NOSS 3-4 (C) 4.2 22:41:40 43° NE 22:41:40 43° NE 22:45:58 10° NE
Lacrosse 4 Rocket 3.7 22:36:57 10° NW 22:38:29 22° NW 22:38:29 22° NW
ATLAS CENTAUR R/B 4.2 22:48:53 10° NNW 22:49:49 13° N 22:49:49 13° N
Cosmos 2278 Rocket 3.2 23:04:22 41° NNE 23:04:22 41° NNE 23:08:03 10° NNE
ATLAS 2AS CENTAUR R/B 3.1 22:59:08 38° WSW 23:02:37 76° NW 23:10:28 10° NE
Lacrosse 5 rocket 4.0 23:05:21 10° WNW 23:06:28 17° WNW 23:06:28 17° WNW
ATLAS 3B R/B 3.8 23:12:26 10° NW 23:17:17 32° W 23:17:17 32° W
Terra 4.2 23:37:00 17° WNW 23:37:00 17° WNW 23:38:47 10° NW
USA 234 3.7 23:47:04 10° ENE 23:54:28 56° NW 23:59:56 10° W
